Temperature
20 20 19 19 19 19 19 18 19 18 19 19 19 19 19 19 19 19 19 18 18 18 17 18 19 19 18 18 18 18 19 19 19 19 18 19 19 19 19 19 19 19 19
20 20 19 19 19 19 18 18 18 18 18 19 19 19 19 19 19 19 19 18 18 18 18 18 19 19 18 18 18 18 18 18 18 18 18 19 19 19 19 18 19 19 19
20 20 20 19 19 19 18 18 18 18 18 18 18 18 19 19 19 19 19 18 18 18 18 19 19 18 18 18 18 18 18 18 18 18 18 18 18 19 19 19 19 19 19
20 20 20 19 19 19 18 18 18 18 18 18 18 18 18 19 18 18 18 18 18 18 18 19 19 18 18 18 18 18 18 18 18 18 18 18 18 18 19 19 19 19 18
19 19 19 19 19 19 18 18 18 18 18 18 18 18 18 18 18 18 18 18 18 18 18 18 18 18 18 18 17 18 18 18 18 18 18 18 18 18 19 19 18 18 18
19 19 19 19 19 19 18 18 18 18 18 18 18 18 18 18 18 18 18 18 18 18 18 18 18 18 17 17 17 17 18 18 18 18 18 18 18 18 18 18 18 18 18
19 19 19 19 19 19 18 18 18 18 18 18 18 18 18 17 18 18 17 18 18 18 18 18 17 17 17 17 17 17 17 17 18 18 19 18 18 18 18 18 18 18 18
19 19 19 19 19 19 18 18 18 18 18 18 18 18 17 17 17 18 17 17 18 18 18 18 17 17 17 17 17 17 17 17 17 18 18 18 18 18 18 18 18 18 18
19 19 19 19 19 19 19 18 18 18 18 18 18 18 18 17 17 17 17 17 18 18 17 17 16 17 17 17 16 17 17 17 17 17 18 18 18 18 18 18 18 17 17
19 19 19 19 19 18 18 18 18 18 18 18 18 18 18 18 18 18 17 17 17 17 17 16 16 16 16 16 16 17 17 17 17 17 17 17 18 18 18 18 18 17 17
20 19 19 19 19 19 18 18 18 18 18 18 17 17 18 18 17 17 17 17 17 16 16 16 16 16 16 16 16 16 17 17 17 17 17 16 17 18 18 18 18 18 17
20 20 20 19 19 19 19 18 18 18 18 17 17 17 17 18 17 17 17 17 17 16 16 16 16 16 16 16 16 16 17 16 16 16 16 16 16 17 17 18 18 18 18
21 20 20 20 19 19 19 18 18 18 18 17 17 17 17 17 17 17 17 17 17 16 16 16 16 16 16 16 16 16 16 16 16 16 16 16 16 16 17 17 17 17 17
21 21 20 20 20 19 19 19 19 18 18 17 17 17 17 17 17 17 17 17 16 16 16 16 16 16 16 16 16 16 16 16 16 16 16 16 16 16 16 17 17 17 17
21 21 21 21 20 20 19 19 19 18 18 17 17 17 17 17 17 17 17 17 16 16 16 16 16 16 16 16 16 16 16 15 16 16 16 16 16 16 16 16 16 16 16
22 21 21 21 20 20 20 19 19 18 18 17 17 17 17 17 17 17 17 17 16 16 16 16 16 16 16 15 16 15 15 15 15 15 16 16 16 16 16 16 16 16 16
22 21 21 21 20 20 19 19 18 18 18 17 17 17 17 17 17 17 17 16 16 16 16 16 16 16 16 15 15 15 15 15 15 15 15 15 16 16 16 16 16 16 16
22 22 21 21 21 20 19 19 18 18 18 17 17 17 17 17 17 16 17 17 16 16 16 16 16 16 16 16 15 15 14 14 14 15 15 15 16 16 16 16 16 16 16
22 22 22 21 21 20 19 19 18 18 18 17 17 17 17 17 17 16 17 17 17 16 16 16 16 16 16 16 15 15 14 14 14 14 15 15 15 16 16 16 16 16 16
23 22 21 21 20 20 19 19 18 18 17 17 17 17 17 17 17 17 17 17 17 17 16 16 16 16 16 16 15 15 14 14 14 14 14 15 15 15 16 16 16 16 16
22 21 20 20 20 19 19 19 18 18 18 17 17 17 17 17 17 17 17 17 17 17 17 17 16 16 15 15 15 14 14 14 14 14 14 14 14 15 15 16 16 16 16
21 20 19 19 19 19 19 19 18 18 17 17 17 17 17 17 17 17 17 17 17 17 17 17 17 16 16 15 15 15 14 13 13 13 14 14 14 14 14 15 15 16 16
21 20 19 19 18 18 18 18 18 17 17 17 17 17 17 17 17 17 17 17 17 17 17 17 17 17 17 16 15 15 15 14 14 13 13 14 14 14 14 14 15 15 15
20 20 19 18 18 18 18 17 17 17 17 17 17 17 17 17 17 16 16 17 17 17 17 17 17 17 17 16 15 15 16 16 15 14 13 13 14 14 13 14 14 14 14
20 19 19 18 17 17 17 17 17 16 16 16 16 16 16 16 16 16 16 16 16 17 17 17 17 17 17 16 16 15 15 15 15 15 14 14 14 14 13 13 14 14 14
20 19 19 18 17 17 17 16 16 16 16 15 15 15 15 15 16 16 16 16 16 16 16 17 17 17 16 16 16 16 16 16 16 16 16 15 15 14 14 13 13 13 13
Wind_Speed
5 7 11 10 10 8 8 8 11 13 14 15 14 12 11 12 12 12 13 14 14 12 8 7 10 12 13 13 11 10 11 12 12 11 10 10 10 10 9 7 7 5 6
8 10 12 11 10 9 9 9 11 12 14 14 13 12 12 12 12 13 14 14 14 13 9 8 11 12 13 12 11 12 12 12 11 10 9 8 10 10 8 8 8 6 7
8 10 12 12 11 10 10 11 12 13 14 14 13 12 12 12 12 13 14 14 14 13 11 10 11 11 12 11 12 13 13 13 12 11 10 8 7 9 7 7 8 8 7
9 9 11 12 12 11 11 11 12 14 15 14 13 12 11 11 12 13 13 14 14 13 11 10 11 11 11 11 12 13 13 14 14 12 9 7 6 7 7 7 7 7 7
7 8 10 13 12 12 11 12 13 14 15 15 14 12 11 10 11 12 13 13 13 12 11 11 10 9 9 10 11 13 13 13 14 12 9 8 7 7 7 6 6 7 7
7 8 10 13 12 12 12 13 14 14 14 14 14 13 11 11 11 11 12 13 12 12 11 10 10 9 8 7 10 13 13 12 12 12 10 9 8 9 8 7 6 7 7
7 7 9 12 12 12 12 13 14 14 14 14 14 13 12 12 12 11 10 11 11 12 11 10 9 9 7 9 13 13 12 11 11 11 10 9 10 11 9 8 7 7 6
7 7 9 12 12 13 13 14 14 14 14 14 14 12 12 12 12 12 11 10 11 11 11 10 10 10 12 14 13 11 10 9 9 9 9 8 11 12 11 9 8 7 6
6 5 6 9 11 13 14 14 14 13 13 13 13 13 13 13 13 13 12 11 11 11 12 12 11 11 14 13 12 11 10 10 9 7 6 6 9 10 10 10 9 8 6
5 5 5 6 7 9 12 14 14 14 14 13 13 13 13 13 13 14 12 11 11 12 13 13 13 14 15 14 12 11 10 9 8 8 6 4 7 8 8 9 9 7 7
5 4 5 5 6 8 9 12 13 14 14 13 13 13 11 9 10 11 11 11 11 12 13 14 14 14 15 14 12 11 9 8 8 7 6 4 7 7 7 8 8 7 7
7 6 5 5 5 6 6 8 9 9 11 11 10 10 10 9 7 8 9 11 11 11 12 13 13 14 13 12 11 10 9 9 8 7 6 6 7 8 8 8 8 7 7
8 8 7 6 6 5 4 5 6 7 8 9 9 10 10 8 5 5 5 7 9 10 10 10 11 11 12 10 9 9 9 8 8 8 7 8 9 9 9 8 8 8 8
8 10 10 10 8 7 6 5 6 6 6 6 9 11 10 5 4 4 4 5 6 7 8 7 8 11 12 11 10 9 9 9 9 9 11 12 12 11 10 10 9 9 9
11 11 12 12 12 10 8 5 5 5 6 8 10 11 11 6 5 4 4 4 5 7 6 5 7 9 8 8 8 9 8 10 11 12 13 18 17 15 12 12 11 11 11
12 12 10 12 12 10 8 6 5 5 6 8 9 11 12 9 6 4 3 4 4 6 6 6 7 7 6 6 5 7 9 10 12 13 14 16 22 21 18 16 15 14 13
12 13 14 14 11 9 7 7 4 5 7 6 8 11 12 11 8 5 4 4 5 7 8 7 6 7 5 5 5 5 7 9 11 12 13 14 15 19 22 21 20 18 16
11 13 16 14 12 10 8 7 5 5 6 6 8 11 12 12 11 7 5 5 7 8 6 5 4 5 5 5 4 3 3 6 8 10 12 13 13 13 16 19 22 22 21
14 15 16 13 11 11 10 8 7 4 5 6 8 9 11 13 12 8 5 5 9 5 4 6 3 4 5 6 5 4 3 3 4 7 8 11 13 13 13 14 18 20 21
7 9 10 8 5 7 7 5 4 4 5 4 6 8 11 12 13 10 5 7 9 6 5 5 5 3 4 6 7 6 4 4 4 4 4 8 11 13 14 14 13 14 18
2 4 5 6 5 6 4 4 4 4 4 4 4 6 9 11 12 10 6 7 7 8 9 8 5 5 4 4 5 4 4 5 6 4 3 5 8 11 13 13 12 11 12
3 4 5 5 6 6 4 3 3 3 2 3 2 3 8 10 11 10 9 8 9 7 8 8 7 5 3 4 4 4 2 3 4 5 4 4 5 7 9 11 12 12 13
3 5 5 5 6 6 5 4 3 3 3 2 3 4 6 9 10 9 8 9 9 9 10 10 10 8 6 3 2 4 4 4 1 3 4 4 4 4 5 8 10 11 12
3 3 5 6 6 6 7 6 5 5 4 4 4 4 5 6 7 7 7 8 10 9 10 12 10 6 9 6 2 2 3 4 4 2 2 2 3 3 3 4 6 8 10
4 5 5 6 6 6 6 7 5 4 3 3 4 6 5 5 5 5 5 5 8 7 8 9 8 6 6 6 5 3 3 3 3 4 2 1 1 1 1 2 3 4 6
3 3 4 4 4 5 5 5 5 6 5 5 5 7 6 5 6 7 7 4 4 5 7 8 7 8 6 6 5 4 4 4 4 4 4 3 3 2 1 1 0 1 3
Wind_Direction
172 166 171 169 167 167 163 150 143 138 132 126 123 122 119 112 109 108 110 112 108 104 97 87 81 77 73 72 82 92 97 101 103 102 92 87 100 110 108 105 112 107 103
155 163 171 170 168 168 165 155 148 143 138 133 133 133 128 119 117 117 119 120 118 114 112 95 83 78 74 74 81 89 96 102 104 98 88 86 101 109 111 111 115 114 106
145 162 170 169 168 167 167 158 152 147 140 136 135 134 131 130 131 129 128 124 117 111 104 93 86 80 73 71 79 83 89 95 98 92 82 74 93 105 106 114 115 109 103
151 161 165 169 166 165 165 158 155 148 140 137 136 134 135 139 138 135 130 125 116 108 100 92 88 83 74 78 83 77 74 77 83 83 77 77 91 106 108 116 119 109 102
148 156 169 165 162 161 161 156 152 149 143 140 137 136 138 138 135 133 130 123 114 105 95 89 87 84 79 84 87 81 75 69 70 66 65 72 85 105 109 118 122 114 104
146 153 168 161 159 159 158 152 150 150 148 143 138 138 136 128 129 135 130 120 111 103 93 87 88 87 80 83 95 87 81 74 62 55 53 64 80 96 103 109 118 117 110
151 154 163 160 157 156 155 149 151 151 148 142 137 138 138 131 131 135 129 115 106 98 93 90 93 87 74 97 105 94 86 77 60 51 46 56 76 87 94 100 100 100 101
148 148 158 161 157 155 152 150 153 152 147 142 138 137 135 131 128 131 128 111 98 94 94 94 91 80 90 104 105 94 84 77 61 46 43 53 72 77 82 88 90 88 94
129 125 141 157 159 156 152 151 153 153 148 143 137 134 133 131 130 129 125 108 98 97 97 94 85 88 99 102 98 89 82 74 60 41 30 53 74 73 74 73 76 81 82
115 126 135 143 144 144 150 154 154 155 152 147 139 136 136 137 136 132 127 114 106 103 98 91 83 97 103 96 93 89 78 59 49 42 21 61 90 81 74 71 71 78 82
145 142 144 132 124 130 147 160 159 160 159 152 146 143 132 121 124 128 132 123 113 109 101 89 85 100 100 90 87 81 66 48 40 34 24 71 104 92 82 76 72 73 79
176 172 157 149 141 144 156 148 152 155 160 152 150 141 130 124 127 133 140 133 124 113 99 87 88 102 97 85 77 68 56 51 42 31 38 71 99 99 91 84 80 77 78
179 180 174 171 158 154 144 139 147 147 154 151 147 144 135 127 126 121 115 115 105 97 87 82 86 104 101 89 77 62 54 54 44 34 48 74 81 83 86 84 81 81 83
177 189 185 179 173 175 172 168 167 160 163 162 157 153 143 133 129 130 126 119 104 97 86 76 89 106 98 88 82 66 53 50 43 40 50 70 77 77 76 79 78 76 76
192 195 196 190 186 186 184 183 177 172 171 171 165 165 157 147 151 146 145 137 114 107 97 91 108 112 107 96 86 76 59 48 45 48 51 63 66 67 69 73 77 76 74
199 198 201 204 200 192 184 182 182 175 177 173 172 172 167 164 160 157 152 143 132 129 115 111 126 120 113 110 94 82 71 60 51 52 53 55 60 61 63 69 73 75 74
200 197 202 208 203 194 186 184 181 179 182 183 179 176 172 178 175 170 165 154 150 146 127 114 114 114 112 110 97 85 81 69 56 53 56 55 54 54 56 58 61 64 66
200 200 208 210 197 186 183 187 183 179 181 193 184 177 177 186 186 174 177 165 156 152 142 133 136 118 117 116 106 83 86 87 69 61 60 56 53 51 51 53 53 52 52
207 204 206 206 194 184 184 189 190 172 182 193 190 182 181 188 190 179 186 164 162 163 156 154 142 133 130 122 110 75 56 83 83 77 64 62 59 54 51 48 50 48 45
215 206 203 191 164 161 166 175 187 190 197 188 199 195 182 184 188 185 187 168 166 169 167 159 141 120 123 127 107 80 54 63 73 75 77 78 72 66 61 55 49 43 43
184 179 172 156 136 138 146 168 185 208 206 195 207 211 192 187 189 187 186 169 171 179 175 156 136 130 124 127 100 81 50 57 61 49 59 84 80 77 70 62 57 51 42
195 182 164 152 147 158 156 150 165 161 176 173 177 215 209 195 192 195 185 179 177 174 164 162 147 138 142 158 131 115 86 34 36 38 40 59 62 64 66 63 58 51 46
200 193 179 157 150 154 145 122 106 96 96 139 180 199 215 202 194 188 181 177 176 176 178 176 167 156 157 173 149 142 149 179 107 34 40 46 50 48 50 58 55 49 44
190 159 160 160 158 159 157 167 170 171 179 184 178 185 195 201 197 189 179 177 180 183 181 183 175 166 155 159 132 96 126 143 140 109 20 28 61 58 43 54 54 51 49
181 162 164 164 164 166 169 168 163 165 171 162 159 159 157 163 160 153 156 172 186 185 177 177 168 161 154 158 154 142 111 83 107 133 158 221 350 49 61 53 55 55 57
207 181 164 160 155 152 163 167 180 188 188 181 174 165 160 152 140 130 124 142 171 177 175 178 166 162 160 160 159 161 161 155 163 147 148 167 204 221 146 124 76 39 70
Height
1506 1507 1510 1512 1513 1515 1517 1519 1520 1521 1522 1523 1524 1524 1526 1527 1528 1528 1529 1530 1530 1530 1530 1532 1531 1529 1530 1530 1530 1530 1530 1531 1532 1532 1533 1534 1534 1535 1535 1536 1536 1536 1536
1505 1507 1509 1511 1513 1515 1517 1519 1520 1521 1522 1523 1524 1525 1526 1527 1528 1529 1529 1530 1531 1531 1532 1532 1531 1531 1531 1531 1531 1531 1531 1532 1533 1533 1534 1535 1535 1536 1536 1537 1537 1537 1537
1505 1507 1509 1511 1513 1515 1517 1518 1520 1521 1522 1523 1525 1526 1527 1527 1528 1529 1530 1531 1532 1532 1532 1532 1532 1532 1532 1533 1533 1532 1532 1533 1533 1534 1535 1536 1536 1536 1537 1538 1538 1538 1538
1505 1507 1509 1511 1513 1515 1517 1518 1520 1521 1522 1524 1525 1527 1528 1528 1529 1529 1530 1531 1532 1532 1532 1533 1532 1533 1534 1534 1535 1534 1534 1534 1534 1535 1535 1536 1536 1537 1537 1538 1539 1539 1539
1506 1507 1509 1511 1513 1515 1516 1518 1520 1521 1523 1524 1525 1527 1528 1529 1530 1531 1531 1532 1532 1533 1533 1533 1534 1534 1535 1536 1536 1536 1536 1536 1535 1536 1536 1536 1537 1537 1538 1538 1539 1539 1540
1507 1508 1509 1511 1513 1515 1517 1518 1520 1522 1523 1525 1526 1527 1528 1529 1531 1532 1533 1533 1533 1533 1534 1534 1535 1536 1536 1537 1537 1538 1538 1538 1537 1537 1537 1537 1537 1537 1538 1539 1540 1540 1540
1507 1508 1510 1511 1513 1515 1517 1519 1520 1522 1523 1525 1526 1528 1529 1530 1532 1533 1535 1535 1535 1534 1534 1535 1536 1537 1538 1538 1539 1539 1539 1539 1539 1538 1538 1538 1537 1537 1538 1539 1540 1540 1541
1508 1509 1510 1512 1513 1515 1517 1519 1520 1522 1524 1525 1527 1528 1530 1531 1532 1533 1535 1536 1536 1535 1535 1536 1537 1538 1539 1540 1540 1541 1540 1540 1540 1539 1539 1539 1538 1539 1539 1540 1540 1541 1542
1509 1510 1511 1512 1513 1515 1517 1519 1521 1523 1524 1526 1528 1529 1530 1532 1533 1534 1535 1536 1537 1537 1537 1538 1539 1540 1541 1542 1542 1542 1541 1541 1541 1540 1540 1540 1540 1540 1540 1540 1541 1542 1542
1509 1510 1511 1512 1513 1515 1517 1519 1521 1523 1525 1527 1528 1530 1531 1533 1534 1535 1536 1537 1538 1539 1539 1540 1541 1542 1542 1543 1543 1542 1542 1541 1541 1541 1541 1541 1540 1541 1541 1541 1542 1542 1543
1509 1510 1511 1513 1514 1515 1517 1520 1521 1523 1525 1527 1529 1530 1532 1534 1535 1536 1537 1538 1539 1541 1541 1542 1543 1544 1544 1545 1544 1544 1543 1542 1542 1542 1542 1541 1541 1542 1542 1542 1542 1543 1543
1509 1510 1512 1513 1514 1516 1517 1519 1521 1523 1525 1527 1528 1530 1532 1534 1536 1537 1538 1539 1540 1542 1543 1544 1545 1546 1546 1546 1546 1545 1544 1544 1544 1543 1543 1543 1543 1543 1543 1543 1543 1543 1544
1508 1510 1512 1513 1514 1516 1517 1519 1521 1522 1524 1526 1527 1530 1532 1534 1535 1536 1538 1540 1541 1543 1544 1546 1547 1548 1548 1548 1547 1547 1546 1546 1546 1545 1545 1545 1544 1544 1544 1544 1543 1544 1544
1507 1509 1510 1512 1513 1514 1516 1517 1519 1521 1523 1525 1527 1529 1531 1533 1534 1536 1538 1540 1542 1544 1545 1547 1548 1548 1549 1549 1549 1549 1548 1548 1547 1547 1546 1546 1546 1546 1546 1545 1545 1544 1545
1505 1507 1508 1509 1511 1512 1514 1515 1517 1519 1522 1524 1526 1528 1530 1532 1534 1536 1538 1541 1543 1545 1546 1548 1549 1549 1549 1550 1550 1551 1551 1550 1550 1549 1548 1548 1548 1548 1547 1547 1546 1546 1546
1503 1505 1507 1508 1509 1510 1512 1514 1516 1518 1521 1522 1524 1527 1529 1531 1534 1536 1538 1541 1543 1545 1547 1548 1549 1550 1550 1551 1552 1552 1552 1553 1552 1552 1551 1550 1550 1550 1550 1549 1548 1547 1546
1500 1502 1504 1506 1508 1509 1511 1513 1515 1517 1519 1521 1523 1526 1528 1531 1533 1536 1538 1541 1543 1545 1547 1548 1550 1550 1551 1552 1553 1553 1554 1554 1554 1554 1553 1553 1552 1552 1552 1551 1550 1548 1548
1498 1499 1501 1503 1505 1507 1509 1512 1514 1515 1517 1520 1522 1524 1526 1529 1532 1535 1537 1540 1543 1544 1546 1548 1549 1550 1551 1552 1553 1554 1555 1555 1555 1555 1555 1554 1553 1553 1553 1552 1551 1550 1550
1494 1495 1497 1500 1502 1504 1506 1509 1511 1513 1515 1518 1520 1522 1524 1527 1530 1533 1536 1538 1541 1543 1544 1546 1549 1550 1551 1552 1553 1555 1556 1556 1556 1556 1555 1555 1554 1554 1553 1553 1553 1552 1552
1490 1490 1492 1496 1499 1502 1504 1506 1509 1510 1512 1515 1517 1520 1522 1524 1527 1531 1534 1536 1538 1540 1542 1544 1547 1550 1551 1552 1553 1555 1556 1556 1557 1557 1557 1556 1555 1555 1554 1554 1554 1553 1553
1486 1486 1487 1491 1495 1499 1501 1503 1505 1507 1510 1512 1514 1517 1519 1521 1524 1527 1530 1533 1535 1537 1539 1542 1545 1548 1550 1551 1553 1555 1556 1557 1557 1557 1557 1557 1557 1556 1556 1555 1555 1555 1554
1483 1484 1485 1488 1492 1495 1498 1500 1502 1504 1507 1509 1510 1512 1515 1517 1520 1523 1526 1529 1531 1534 1536 1539 1542 1545 1547 1550 1551 1553 1555 1557 1557 1557 1557 1558 1557 1557 1557 1556 1556 1556 1555
1482 1482 1484 1487 1489 1492 1495 1497 1499 1500 1502 1505 1506 1507 1510 1512 1515 1518 1521 1525 1528 1530 1533 1536 1539 1542 1544 1547 1549 1551 1552 1553 1555 1557 1557 1558 1558 1558 1557 1557 1557 1557 1556
1481 1481 1483 1484 1486 1489 1492 1494 1495 1497 1498 1500 1501 1503 1505 1508 1510 1513 1516 1520 1523 1527 1530 1533 1536 1539 1542 1544 1547 1549 1551 1551 1553 1554 1556 1557 1557 1558 1558 1558 1558 1557 1557
1481 1480 1481 1482 1484 1486 1488 1490 1492 1493 1494 1495 1496 1497 1499 1502 1504 1507 1510 1514 1519 1523 1526 1529 1532 1535 1539 1542 1544 1546 1548 1549 1551 1553 1554 1555 1556 1557 1557 1557 1558 1558 1557
1480 1480 1481 1482 1482 1483 1485 1487 1488 1489 1489 1490 1491 1492 1493 1496 1499 1502 1505 1509 1514 1518 1522 1525 1529 1532 1536 1539 1542 1544 1545 1547 1549 1550 1552 1553 1554 1556 1556 1557 1557 1557 1556